Main page
METAR-TAF:

METAR-TAF

Airports :

Qeshm, Iran

Qeshm International Airport

latitude: 26-45-18N, longitude: 055-54-08E, elevation: 12 m

Current weather observation

The report was made 1 hour and 2 minutes ago, at 09:00 UTC
Wind 14 kt from the South/Southwest
Temperature 32°C
Humidity 71%
Pressure 1008 hPa
Visibility: 6000 m
Few clouds at a height of 3000 ft

METAR: OIKQ 220900Z 20014KT 6000 FEW030 32/26 Q1008

Time: 13:32 (10:02 UTC)


TAF: missing

Weather observations and forecasts of more than 4000 airports (METAR and TAF reports).

The available stations are represented by yellow and red dots on the map.

Hover mouse over dot to see the name of the station.

Then click to see weather observations and forecasts.

To change the map : click on the green buttons with a black cross to zoom in, on the green button with a dash to zoom out, or on the green arrows for adjacent maps.


METAR-TAF: